Bartow, FL

11:07 AM EDT on July 25, 2017 (GMT -0400)
Bartow Municipal

Weather History for KBOW - April, 2012

Change the Weather History Date:

Sunday, April 22, 2012

  Actual Average Record
Temperature  
Mean Temperature 68 °F -  
Max Temperature 78 °F 86 °F 95 °F (1968)
Min Temperature 57 °F 61 °F 45 °F (1943)
Cooling Degree Days 2    
Growing Degree Days 18 (Base 50)    
Moisture  
Dew Point 59 °F    
Average Humidity 79    
Maximum Humidity 100    
Minimum Humidity 47    
Precipitation  
Precipitation 0.92 in - - ()
Sea Level Pressure  
Sea Level Pressure 29.63 in    
Wind  
Wind Speed 9 mph (WSW)    
Max Wind Speed 18 mph    
Max Gust Speed 31 mph    
Visibility 8 miles    
Events Fog , Rain , Thunderstorm    
Averages and records for this station are not official NWS values.
T = Trace of Precipitation, MM = Missing Value Source: NWS Daily Summary

Daily Weather History Graph

Daily Weather History Graph

Search for Another Location

Airport or City:

Trip Planner

Search our weather history database for the weather conditions in past years. The results will help you decide how hot, cold, wet, or windy it might be!

Date:

Astronomy

Apr. 22, 2012 Rise Set
Actual Time 6:54 AM EDT 7:56 PM EDT
Civil Twilight 6:30 AM EDT 8:20 PM EDT
Nautical Twilight 6:01 AM EDT 8:49 PM EDT
Astronomical Twilight 5:32 AM EDT 9:19 PM EDT
Moon 7:33 AM EDT (4/22) 9:21 PM EDT (4/22)
Length of Visible Light 13h 50m
Length of Day
13h 01m
New Moon, 2% of the Moon is Illuminated
Apr 22
New Moon
Apr 29
First Quarter
May 5
Full
May 12
Last Quarter
May 20
New

Hourly Weather History & Observations

Time (EDT) Temp. Dew Point Humidity Pressure Visibility Wind Dir Wind Speed Gust Speed Precip Events Conditions
12:15 AM 64.4 °F 62.6 °F 94% 29.66 in 10.0 mi ESE 6.9 mph - N/A   Clear
12:35 AM 62.6 °F 62.6 °F 100% 29.64 in 10.0 mi ESE 8.1 mph - N/A   Clear
12:55 AM 62.6 °F 62.6 °F 100% 29.63 in 10.0 mi ESE 4.6 mph - N/A   Scattered Clouds
1:15 AM 64.4 °F 64.4 °F 100% 29.62 in 10.0 mi SE 4.6 mph - N/A   Mostly Cloudy
1:35 AM 64.4 °F 64.4 °F 100% 29.61 in 10.0 mi SSE 6.9 mph - N/A Thunderstorm Overcast
1:55 AM 66.2 °F 64.4 °F 94% 29.63 in 10.0 mi West 11.5 mph - N/A Thunderstorm Overcast
2:15 AM 60.8 °F 59.0 °F 94% 29.65 in - West 12.7 mph 31.1 mph 0.54 in Rain , Thunderstorm Heavy Thunderstorms and Rain
2:35 AM 60.8 °F 60.8 °F 100% 29.63 in 2.5 mi West 8.1 mph - 0.85 in Rain , Thunderstorm Rain
2:55 AM 60.8 °F 60.8 °F 100% 29.62 in 5.0 mi WSW 10.4 mph - 0.87 in Rain Light Rain
3:15 AM 60.8 °F 60.8 °F 100% 29.62 in 2.0 mi SSW 5.8 mph - 0.02 in Rain Rain
3:35 AM 60.8 °F 60.8 °F 100% 29.60 in 5.0 mi SSE 3.5 mph - 0.05 in Rain Light Rain
3:55 AM 60.8 °F 60.8 °F 100% 29.57 in 10.0 mi East 4.6 mph - 0.05 in   Mostly Cloudy
4:15 AM 60.8 °F 60.8 °F 100% 29.56 in 10.0 mi WSW 3.5 mph - N/A   Partly Cloudy
4:35 AM 60.8 °F 60.8 °F 100% 29.56 in 8.0 mi WSW 4.6 mph - N/A   Clear
4:55 AM 59.0 °F 59.0 °F 100% 29.56 in 0.8 mi SW 4.6 mph - N/A   Mist
5:15 AM 57.2 °F 57.2 °F 100% 29.57 in 0.5 mi Calm Calm - N/A Fog Fog
5:35 AM 57.2 °F 57.2 °F 100% 29.58 in 5.0 mi SW 3.5 mph - N/A   Partly Cloudy
5:55 AM 59.0 °F 59.0 °F 100% 29.58 in 5.0 mi SW 4.6 mph - N/A   Partly Cloudy
6:15 AM 57.2 °F 57.2 °F 100% 29.58 in 2.5 mi SW 3.5 mph - N/A   Partly Cloudy
6:55 AM 59.0 °F 59.0 °F 100% 29.57 in 3.0 mi South 5.8 mph - N/A   Clear
7:15 AM 59.0 °F 59.0 °F 100% 29.58 in 5.0 mi SSW 5.8 mph - N/A   Partly Cloudy
7:30 AM 59.0 °F 59.0 °F 100% 29.59 in 2.0 mi SSW 6.9 mph - N/A   Mostly Cloudy
7:35 AM 60.8 °F 60.8 °F 100% 29.58 in 4.0 mi SW 5.8 mph - N/A   Scattered Clouds
7:51 AM 60.8 °F 60.8 °F 100% 29.59 in 3.0 mi SSW 6.9 mph - N/A   Scattered Clouds
9:50 AM 68.0 °F 60.8 °F 78% 29.62 in 15.0 mi WSW 10.4 mph - N/A   Scattered Clouds
10:17 AM 69.8 °F 60.8 °F 73% 29.62 in 15.0 mi SW 10.4 mph - N/A   Mostly Cloudy
10:50 AM 71.6 °F 60.8 °F 69% 29.62 in 12.0 mi WSW 13.8 mph - N/A   Mostly Cloudy
11:18 AM 71.6 °F 59.0 °F 64% 29.60 in 0.5 mi WSW 15.0 mph - N/A Fog , Rain Rain
11:38 AM 66.2 °F 64.4 °F 94% 29.62 in 10.0 mi West 10.4 mph - N/A   Mostly Cloudy
11:50 AM 66.2 °F 64.4 °F 94% 29.61 in 10.0 mi West 8.1 mph - N/A   Mostly Cloudy
12:50 PM 71.6 °F 60.8 °F 69% 29.60 in 12.0 mi WNW 11.5 mph 17.3 mph N/A   Scattered Clouds
1:50 PM 75.2 °F 60.8 °F 61% 29.59 in 15.0 mi WSW 10.4 mph - N/A   Scattered Clouds
2:50 PM 77.0 °F 57.2 °F 50% 29.59 in 15.0 mi WNW 10.4 mph - N/A   Scattered Clouds
3:35 PM 78.8 °F 57.2 °F 47% 29.59 in 10.0 mi West 15.0 mph - N/A   Overcast
3:55 PM 78.8 °F 57.2 °F 47% 29.58 in 10.0 mi West 15.0 mph 23.0 mph N/A   Scattered Clouds
4:35 PM 75.2 °F 60.8 °F 61% 29.59 in 10.0 mi WNW 12.7 mph 19.6 mph N/A   Mostly Cloudy
4:55 PM 77.0 °F 59.0 °F 54% 29.59 in 10.0 mi WNW 17.3 mph 25.3 mph N/A   Mostly Cloudy
5:15 PM 77.0 °F 57.2 °F 50% 29.59 in 10.0 mi WNW 12.7 mph 20.7 mph N/A   Partly Cloudy
5:35 PM 77.0 °F 57.2 °F 50% 29.60 in 10.0 mi WNW 18.4 mph 27.6 mph N/A   Scattered Clouds
5:55 PM 77.0 °F 59.0 °F 54% 29.61 in 9.0 mi West 18.4 mph 24.2 mph N/A   Partly Cloudy
6:15 PM 75.2 °F 60.8 °F 61% 29.61 in 9.0 mi West 16.1 mph 21.9 mph N/A   Partly Cloudy
6:35 PM 73.4 °F 59.0 °F 61% 29.62 in 9.0 mi West 17.3 mph 26.5 mph N/A   Partly Cloudy
6:55 PM 73.4 °F 59.0 °F 61% 29.63 in 9.0 mi West 15.0 mph - N/A   Partly Cloudy
7:15 PM 73.4 °F 57.2 °F 57% 29.64 in 9.0 mi West 17.3 mph 25.3 mph N/A   Partly Cloudy
7:35 PM 71.6 °F 55.4 °F 57% 29.65 in 9.0 mi West 13.8 mph - N/A   Clear
7:55 PM 71.6 °F 57.2 °F 60% 29.66 in 9.0 mi WNW 17.3 mph 21.9 mph N/A   Clear
8:15 PM 69.8 °F 59.0 °F 68% 29.68 in 10.0 mi West 13.8 mph 17.3 mph N/A   Clear
8:35 PM 69.8 °F 59.0 °F 68% 29.69 in 10.0 mi West 10.4 mph - N/A   Scattered Clouds
8:55 PM 69.8 °F 57.2 °F 64% 29.71 in 10.0 mi West 11.5 mph 18.4 mph N/A   Partly Cloudy
9:15 PM 68.0 °F 57.2 °F 68% 29.72 in 10.0 mi West 11.5 mph - N/A   Partly Cloudy
9:35 PM 68.0 °F 57.2 °F 68% 29.74 in 10.0 mi West 10.4 mph 18.4 mph N/A   Partly Cloudy
9:55 PM 66.2 °F 57.2 °F 73% 29.75 in 10.0 mi WSW 6.9 mph - N/A   Partly Cloudy
10:15 PM 66.2 °F 55.4 °F 68% 29.76 in 10.0 mi WSW 6.9 mph - N/A   Clear
10:35 PM 64.4 °F 55.4 °F 73% 29.76 in 10.0 mi WSW 4.6 mph - N/A   Clear
10:55 PM 64.4 °F 55.4 °F 73% 29.77 in 10.0 mi WSW 6.9 mph - N/A   Clear
11:15 PM 64.4 °F 55.4 °F 73% 29.77 in 10.0 mi West 6.9 mph - N/A   Clear
11:35 PM 64.4 °F 55.4 °F 73% 29.77 in 10.0 mi West 8.1 mph - N/A   Clear
11:55 PM 64.4 °F 55.4 °F 73% 29.77 in 10.0 mi West 8.1 mph - N/A   Clear